CAPE
0 0 0 0 0 0 0 0 0 0 0 0 0 0 0 0 0 0 0 0 0 0 0 0 0 0 648 1162 1362 1404 1276 1057 589 305 196 188 180 84 14 0 0 0 0 0
0 0 0 0 0 0 0 0 0 0 0 0 0 0 0 0 0 0 0 0 0 0 0 0 0 0 0 918 1105 1338 1374 1028 766 594 412 306 267 96 9 0 0 0 0 0
0 0 0 0 0 0 0 0 0 0 0 0 0 0 0 0 0 0 0 0 0 0 0 0 0 0 0 0 312 1172 1169 1161 811 568 475 134 63 0 0 0 0 0 0 0
0 0 0 0 0 0 0 0 0 0 0 0 0 0 0 0 0 0 0 0 0 0 0 0 0 0 0 0 0 504 1141 1055 843 652 539 62 0 0 0 0 0 0 0 0
0 0 0 0 0 0 0 0 0 0 0 0 0 0 0 0 0 0 0 0 0 0 0 0 0 0 0 0 0 0 0 842 822 657 521 76 0 2 0 0 0 0 0 0
0 0 0 0 0 0 0 0 0 0 0 0 0 0 0 0 0 0 0 0 0 0 0 0 0 0 0 0 0 0 0 0 12 513 416 7 0 0 0 0 0 0 0 0
0 0 0 0 0 0 0 0 0 0 0 0 0 0 0 0 0 0 0 0 0 0 0 0 0 0 0 0 0 0 0 0 0 24 158 1 0 0 0 0 0 0 0 0
0 0 0 0 0 0 0 0 0 0 0 0 0 0 0 0 0 0 0 0 0 0 0 0 0 0 0 0 0 0 0 0 0 0 7 2 5 1 1 0 0 0 0 0
0 0 0 0 0 0 0 0 0 3 0 1 0 0 0 0 0 0 0 0 0 0 0 0 0 0 0 0 0 0 0 0 0 0 0 15 2 6 3 2 3 5 1 0
0 0 0 0 0 0 0 0 0 5 6 1 0 0 2 0 0 0 0 0 0 0 0 0 0 0 0 0 0 0 0 0 0 0 0 1 4 0 0 0 1 1 0 0
0 0 0 0 0 0 0 0 0 0 0 15 0 0 0 0 0 0 0 0 0 0 0 0 0 0 0 0 0 0 0 0 0 0 0 0 1 0 0 0 0 0 0 0
0 0 0 0 0 0 0 0 0 0 0 0 0 0 0 0 0 0 33 20 0 0 0 0 0 0 0 0 0 0 0 0 0 0 0 0 8 1 0 0 0 0 0 0
0 0 0 0 0 0 0 0 0 0 0 0 0 0 0 0 0 5 16 0 0 0 0 0 0 0 0 0 0 0 0 0 0 0 0 0 0 0 0 0 0 0 0 0
0 0 0 0 0 0 0 0 0 0 0 0 0 0 0 0 0 0 0 0 0 0 0 0 0 0 0 0 0 0 0 0 0 0 0 0 0 1 0 0 0 0 0 0
0 0 0 0 0 0 0 0 0 0 0 0 0 0 0 0 0 0 0 0 0 1 0 0 0 0 0 0 0 0 0 0 0 0 0 0 0 0 0 0 0 0 0 0
0 0 0 0 0 0 0 0 0 0 0 0 0 7 0 0 0 0 0 0 0 0 0 0 0 0 0 0 0 0 0 0 0 0 5 0 0 0 0 0 0 0 0 0
0 0 0 0 0 0 1 0 0 0 0 0 7 1 0 0 0 0 0 0 0 0 0 0 0 0 0 0 0 0 0 0 0 0 20 6 0 0 0 0 0 0 0 0
0 0 0 0 0 0 0 0 0 0 0 0 0 0 0 0 0 0 0 0 0 0 0 0 0 0 0 0 0 0 0 0 0 0 0 0 0 0 0 0 0 0 0 0
0 0 0 1 0 0 0 0 0 0 0 0 0 0 0 0 0 0 0 0 0 0 0 0 0 0 0 0 0 0 0 0 0 0 0 0 0 0 0 0 0 0 0 0
0 0 0 0 7 0 0 0 0 0 0 0 0 0 0 0 0 0 0 0 0 0 0 0 0 0 0 0 0 0 0 0 0 0 0 0 1 0 0 0 0 0 0 0
0 0 0 0 0 0 0 0 0 0 0 0 0 0 0 0 0 0 0 0 0 0 0 0 0 0 0 0 0 0 0 0 0 0 0 0 0 0 0 0 0 0 0 0
0 0 0 0 0 0 0 0 0 0 0 0 0 0 0 0 0 0 0 0 0 0 0 0 0 0 0 0 0 0 0 0 0 1 0 0 0 0 0 0 0 0 0 0
0 0 0 0 0 0 0 0 0 0 0 0 0 0 0 0 0 0 0 0 0 0 0 0 0 0 0 0 0 0 0 0 0 3 0 0 0 0 0 0 0 0 0 0
0 0 0 0 0 0 0 0 0 0 0 0 0 0 0 0 0 0 0 0 0 0 0 0 0 0 0 0 0 0 0 0 0 0 0 0 0 0 0 0 0 0 0 0
0 0 0 0 0 0 0 0 0 0 0 0 1 0 4 18 9 7 2 0 0 0 0 0 0 0 0 0 0 0 0 2 1 1 0 0 0 0 0 0 0 0 0 0
0 0 0 0 0 0 0 0 2 17 11 6 20 8 2 5 6 11 22 27 27 2 0 0 0 0 0 0 0 0 0 0 0 0 0 0 0 0 0 0 0 2 1 2
CIN
-0 -0 -0 -0 -0 -0 -0 -0 -0 -0 -0 -0 -0 -0 -0 -0 -0 -0 -0 -0 -0 -0 -0 -0 -0 -0 -397 -288 -259 -271 -193 -299 -356 -387 -377 -339 -368 -396 -452 -2 -0 -0 -0 -0
-0 -0 -0 -0 -0 -0 -0 -0 -0 -0 -0 -0 -0 -0 -0 -0 -0 -0 -0 -0 -0 -0 -0 -0 -0 -0 -0 -278 -262 -204 -196 -249 -277 -322 -374 -283 -287 -301 -294 -0 -0 -0 -0 -0
-0 -0 -0 -0 -0 -0 -0 -0 -0 -0 -0 -0 -0 -0 -0 -0 -0 -0 -0 -0 -0 -0 -0 -0 -0 -0 -0 -0 -131 -227 -223 -206 -224 -192 -160 -291 -148 -0 -0 -0 -0 -0 -0 -0
-0 -0 -0 -0 -0 -0 -0 -0 -0 -0 -0 -0 -0 -0 -0 -0 -0 -0 -0 -0 -0 -0 -0 -0 -0 -0 -0 -0 -0 -275 -165 -169 -172 -177 -137 -108 -0 -0 -0 -0 -0 -0 -0 -0
-0 -0 -0 -0 -0 -0 -0 -0 -0 -0 -0 -0 -0 -0 -0 -0 -0 -0 -0 -0 -0 -0 -0 -0 -0 -0 -0 -0 -0 -0 -0 -151 -138 -136 -151 -286 -0 -260 -0 -0 -0 -0 -0 -0
-0 -0 -0 -0 -0 -0 -0 -0 -0 -0 -0 -0 -0 -0 -0 -0 -0 -0 -0 -0 -0 -0 -0 -0 -0 -0 -0 -0 -0 -0 -0 -0 -172 -121 -114 -113 -0 -0 -0 -0 -0 -0 -0 -0
-0 -0 -0 -0 -0 -0 -0 -0 -0 -0 -0 -0 -0 -0 -0 -0 -0 -0 -0 -0 -0 -0 -0 -0 -0 -0 -0 -0 -0 -0 -0 -0 -0 -131 -191 -46 -0 -0 -0 -0 -0 -0 -0 -0
-0 -0 -0 -0 -0 -0 -0 -0 -0 -0 -0 -0 -0 -0 -0 -0 -0 -0 -0 -0 -0 -0 -0 -0 -0 -0 -0 -0 -0 -0 -0 -0 -0 -0 -0 -0 -0 -0 -0 -0 -0 -0 -0 -0
-0 -0 -0 -0 -0 -0 -0 -0 -0 -12 -0 -0 -0 -0 -0 -0 -0 -0 -0 -0 -0 -0 -0 -0 -0 -0 -0 -0 -0 -0 -0 -0 -0 -0 -0 -0 -0 -0 -0 -0 -0 -0 -0 -0
-0 -0 -0 -0 -0 -0 -0 -0 -0 -17 -4 -3 -0 -0 -30 -0 -0 -0 -0 -0 -0 -0 -0 -0 -0 -0 -0 -0 -0 -0 -0 -0 -0 -0 -0 -17 -27 -0 -0 -0 -0 -0 -0 -0
-0 -0 -0 -0 -0 -0 -0 -0 -0 -0 -0 -3 -2 -0 -0 -0 -0 -0 -0 -0 -0 -0 -0 -0 -0 -0 -0 -0 -0 -0 -0 -0 -0 -0 -25 -0 -2 -0 -0 -0 -0 -0 -0 -0
-0 -0 -0 -0 -0 -0 -0 -0 -0 -0 -0 -0 -0 -0 -0 -0 -0 -0 -102 -70 -0 -0 -0 -0 -0 -0 -0 -0 -0 -0 -0 -0 -0 -0 -0 -0 -45 -2 -0 -0 -0 -0 -0 -0
-0 -0 -0 -0 -0 -0 -0 -0 -0 -0 -0 -0 -0 -0 -0 -0 -47 -98 -63 -0 -0 -0 -0 -0 -0 -0 -0 -0 -0 -0 -0 -0 -0 -0 -0 -33 -0 -4 -0 -0 -0 -0 -0 -0
-0 -0 -0 -0 -0 -0 -0 -0 -0 -0 -0 -0 -0 -0 -0 -0 -0 -0 -0 -0 -0 -0 -0 -0 -0 -0 -0 -0 -0 -0 -0 -0 -0 -0 -0 -0 -0 -76 -0 -0 -0 -0 -0 -0
-0 -0 -0 -0 -0 -0 -0 -0 -0 -0 -0 -0 -0 -0 -0 -0 -0 -0 -0 -0 -0 -25 -0 -0 -0 -0 -0 -0 -0 -0 -0 -0 -0 -0 -0 -0 -0 -44 -0 -0 -0 -0 -0 -0
-0 -0 -0 -0 -0 -0 -0 -0 -0 -0 -0 -0 -0 -1 -0 -0 -0 -0 -0 -0 -0 -0 -0 -0 -0 -0 -0 -0 -0 -0 -0 -0 -0 -0 -283 -0 -0 -0 -0 -0 -0 -0 -0 -0
-0 -0 -0 -0 -0 -0 -2 -0 -0 -0 -0 -0 -6 -4 -0 -0 -0 -0 -0 -0 -0 -0 -0 -0 -0 -0 -0 -0 -0 -0 -0 -0 -0 -0 -173 -216 -0 -0 -0 -0 -0 -0 -0 -0
-0 -0 -0 -0 -0 -1 -0 -0 -0 -0 -0 -0 -0 -0 -0 -0 -0 -0 -0 -0 -0 -0 -0 -0 -0 -0 -0 -0 -0 -0 -0 -0 -0 -0 -0 -0 -0 -0 -0 -0 -0 -0 -0 -0
-0 -0 -0 -2 -0 -0 -0 -0 -0 -0 -0 -0 -0 -0 -0 -0 -0 -0 -0 -0 -0 -0 -0 -0 -0 -0 -0 -0 -0 -0 -0 -0 -0 -0 -0 -0 -0 -0 -0 -0 -0 -0 -0 -0
-0 -0 -0 -2 -7 -1 -0 -0 -0 -0 -0 -0 -0 -0 -0 -0 -0 -0 -0 -0 -0 -0 -0 -0 -0 -0 -0 -0 -0 -0 -0 -0 -0 -0 -0 -0 -0 -0 -0 -0 -0 -0 -0 -0
-0 -0 -0 -0 -0 -0 -0 -0 -0 -0 -0 -0 -0 -0 -0 -0 -0 -0 -0 -0 -0 -0 -0 -0 -0 -0 -0 -0 -0 -0 -0 -0 -0 -0 -0 -0 -0 -0 -0 -0 -0 -0 -0 -0
-0 -0 -0 -0 -0 -0 -0 -0 -0 -0 -0 -0 -0 -0 -0 -0 -0 -0 -0 -0 -0 -0 -0 -0 -0 -0 -0 -0 -0 -0 -0 -0 -0 -0 -0 -0 -0 -0 -0 -0 -0 -0 -0 -0
-0 -0 -0 -0 -0 -0 -0 -0 -0 -0 -0 -0 -0 -0 -0 -0 -0 -0 -0 -0 -0 -0 -0 -0 -0 -0 -0 -0 -0 -0 -0 -0 -0 -0 -0 -0 -0 -0 -0 -0 -0 -0 -0 -0
-0 -0 -0 -0 -0 -0 -0 -0 -0 -0 -0 -0 -0 -0 -0 -0 -0 -0 -0 -0 -0 -0 -0 -0 -0 -0 -0 -0 -0 -0 -0 -0 -0 -0 -0 -0 -0 -0 -0 -0 -0 -0 -0 -0
-0 -0 -0 -0 -0 -0 -0 -0 -0 -0 -0 -0 -0 -1 -0 -0 -1 -1 -0 -0 -0 -0 -0 -0 -0 -0 -0 -0 -0 -0 -0 -0 -0 -0 -0 -0 -0 -0 -0 -0 -0 -0 -0 -0
-0 -0 -0 -0 -0 -0 -0 -0 -0 -0 -0 -1 -0 -0 -1 -0 -0 -0 -0 -0 -1 -3 -0 -0 -0 -0 -0 -0 -0 -0 -0 -0 -0 -0 -0 -0 -0 -0 -0 -0 -0 -0 -0 -0
Wind_Speed
1 4 9 9 7 7 5 10 10 12 11 17 17 16 13 8 4 6 7 7 9 9 8 14 17 16 9 10 16 21 19 19 14 14 14 13 15 12 11 11 15 16 14 14
4 6 8 5 5 7 11 13 15 9 8 6 19 28 6 7 3 3 6 9 12 14 15 17 18 18 17 8 13 17 19 18 17 14 15 12 11 10 10 8 12 15 17 16
6 6 2 4 3 6 8 10 11 12 9 7 9 27 9 5 6 8 9 6 9 11 13 15 17 15 17 19 13 16 18 19 18 17 8 4 5 3 4 9 10 12 15 16
7 9 10 9 7 6 8 9 12 8 2 5 3 13 4 12 8 7 7 8 8 8 10 10 12 15 16 14 18 15 15 16 15 17 14 16 15 11 12 11 10 11 14 14
8 6 4 5 6 7 8 6 5 2 4 4 6 4 3 8 4 2 3 5 6 6 7 8 8 7 8 11 12 16 17 12 14 14 16 14 15 13 8 8 12 13 13 16
7 2 3 7 3 4 3 3 4 1 3 7 11 11 21 8 5 4 1 6 8 8 7 6 3 3 5 9 10 10 17 19 16 14 15 15 19 15 9 10 11 11 11 11
2 5 4 3 3 2 3 4 3 3 2 11 5 7 16 4 4 4 1 5 7 8 8 8 8 7 5 6 7 10 12 15 24 11 10 13 16 18 20 19 15 15 14 11
3 6 3 2 3 3 0 5 5 6 6 5 5 7 5 4 5 3 2 5 6 7 8 8 8 7 6 5 5 5 10 12 14 21 15 9 10 5 4 7 9 10 11 14
5 5 1 4 4 4 0 3 0 1 1 4 5 6 2 6 4 3 3 5 8 8 9 11 9 8 6 4 4 4 6 9 8 7 11 14 6 6 4 5 7 6 2 1
2 4 4 3 4 4 3 2 1 1 5 11 7 6 6 6 6 4 5 6 9 11 11 11 7 10 7 6 1 2 4 5 7 5 1 6 5 4 4 2 5 4 2 6
3 3 3 3 2 5 1 2 2 1 4 6 13 7 3 1 3 3 7 7 16 17 18 12 10 8 9 6 7 5 3 1 2 1 3 4 4 2 6 4 4 2 2 3
1 3 4 7 5 3 5 6 7 5 7 5 3 10 2 2 3 6 7 10 20 18 18 15 13 6 7 10 8 7 7 6 6 5 4 6 4 4 4 5 5 8 5 5
3 0 4 7 2 4 1 2 3 3 1 4 4 5 3 4 7 9 9 11 11 14 16 11 7 6 6 7 8 8 8 9 8 5 5 6 7 7 8 10 10 9 10 11
1 4 6 10 6 2 5 9 7 5 4 7 13 18 16 13 9 5 7 7 9 8 5 7 7 6 5 5 6 6 5 6 7 9 9 9 7 8 7 6 10 10 10 11
3 3 2 5 7 5 8 14 13 12 12 10 11 17 15 5 6 7 6 7 10 5 7 6 5 6 6 6 6 5 5 3 1 4 5 7 6 5 3 4 5 7 10 11
3 3 2 6 3 8 15 14 12 13 12 14 16 11 8 4 5 7 8 8 6 4 7 7 7 7 6 6 7 6 6 4 3 5 1 5 5 5 5 5 5 8 8 10
2 3 2 9 6 8 11 14 13 12 14 14 14 10 11 4 5 7 8 6 5 5 5 6 7 7 7 8 7 7 7 5 4 0 2 3 2 5 6 5 6 6 8 9
5 4 3 4 3 6 8 6 5 7 11 6 9 7 2 5 7 8 8 6 6 6 6 7 7 7 8 6 8 7 7 7 6 5 4 5 5 6 4 5 6 6 7 9
7 5 1 4 5 10 11 9 2 3 11 12 6 4 7 10 7 9 8 9 11 9 9 8 8 8 8 9 9 7 7 6 4 4 3 2 3 5 7 8 7 6 9 8
4 2 5 2 4 6 8 3 3 3 8 5 1 9 15 8 8 12 12 11 11 10 10 13 12 7 7 10 8 7 8 6 7 6 3 3 4 6 7 6 7 5 7 6
1 2 5 3 4 7 8 8 3 5 6 12 16 17 14 11 13 16 17 14 8 13 17 15 10 8 10 9 8 8 9 9 6 2 4 4 5 6 6 4 3 5 5 8
5 3 4 2 2 7 5 4 4 5 15 14 16 16 16 16 18 17 16 16 17 16 14 13 9 10 10 10 6 11 9 3 2 4 3 4 4 3 2 3 4 6 8 9
3 8 4 7 7 5 3 11 15 11 14 17 14 17 16 18 18 18 17 17 16 14 12 11 10 11 9 8 5 8 5 4 5 5 6 6 2 2 0 4 6 6 8 8
4 4 5 5 9 9 10 13 12 14 14 12 14 16 16 19 19 19 15 14 13 12 12 12 8 8 11 8 7 6 4 3 5 3 4 3 2 1 2 2 3 5 6 7
6 2 4 11 13 12 11 10 9 10 17 17 15 17 17 18 17 16 15 17 17 16 13 9 10 10 11 6 6 4 4 4 5 4 3 2 2 2 3 3 2 4 4 9
5 6 5 8 7 7 13 13 19 17 15 16 18 19 18 18 20 19 18 16 13 14 11 9 13 12 7 5 6 7 7 6 5 4 3 3 3 3 3 5 6 10 10 11
Wind_Direction
248 123 205 207 198 230 282 272 261 272 284 300 289 286 299 267 342 46 16 5 19 22 358 15 9 351 278 200 203 205 210 209 184 193 193 200 206 198 198 198 184 174 186 184
30 229 232 199 192 215 242 260 271 273 257 282 296 287 289 253 141 84 50 29 11 359 13 12 7 14 359 259 217 219 216 205 202 202 202 209 205 220 211 195 185 189 181 184
182 236 194 220 254 269 262 252 266 268 284 261 291 288 243 48 122 70 44 30 31 24 18 17 11 8 10 4 306 228 222 217 214 209 210 233 166 124 191 201 192 191 187 186
227 238 223 252 241 218 277 231 250 267 307 274 171 292 229 233 100 50 24 4 349 1 359 9 17 18 7 4 2 306 241 228 222 209 194 193 201 195 203 195 198 190 187 191
228 179 194 199 199 174 232 229 266 240 208 299 187 248 299 103 168 175 16 344 338 341 349 349 356 358 11 13 11 13 356 251 229 214 213 202 204 216 206 192 182 184 183 179
227 274 207 207 193 206 265 258 275 260 132 248 240 209 271 231 202 155 5 343 333 322 314 310 310 349 350 356 17 38 6 10 316 219 225 208 219 206 190 195 183 181 180 180
244 224 211 147 155 77 86 77 312 313 189 243 151 217 239 136 59 115 97 333 303 295 306 315 330 335 351 39 16 4 40 14 5 309 250 216 215 217 198 186 193 184 176 180
201 311 171 94 112 146 94 163 176 236 251 285 337 255 281 95 116 126 226 259 290 314 303 305 304 314 326 1 357 16 50 33 29 16 331 329 306 303 308 217 208 200 200 191
180 258 348 78 122 130 110 195 10 289 262 277 242 280 259 161 195 183 297 334 317 315 315 303 308 303 314 320 339 353 45 47 32 37 32 328 12 328 41 5 354 312 90 276
25 306 284 47 89 51 160 130 95 74 258 255 246 245 254 225 228 208 271 289 294 311 307 306 305 302 298 296 305 347 6 65 52 20 70 297 334 16 69 206 159 225 279 202
98 119 268 42 187 169 106 171 103 206 170 239 269 259 312 308 308 249 257 291 327 312 301 289 282 275 299 283 282 273 278 199 153 201 68 17 310 60 203 165 105 33 104 112
54 137 243 225 276 201 200 220 178 163 259 231 202 252 223 181 210 219 249 286 287 300 290 283 284 303 306 302 299 260 221 229 232 227 222 163 213 216 213 134 165 169 168 137
178 10 353 311 1 43 227 256 139 126 86 215 251 262 198 241 244 246 253 253 275 297 298 292 289 291 289 295 297 287 271 221 233 238 266 246 199 213 212 191 184 178 174 158
90 175 178 245 271 108 286 292 285 245 238 261 251 280 289 295 312 310 306 293 292 279 286 313 318 306 302 293 327 342 316 270 230 216 226 241 244 221 228 204 186 189 178 162
93 198 219 280 312 319 283 274 283 274 264 257 279 276 284 245 262 254 272 301 304 305 339 359 350 331 317 318 317 327 323 359 39 216 248 257 286 271 260 242 185 173 174 186
36 251 141 274 214 259 270 273 270 273 280 255 256 285 262 259 287 287 284 284 290 313 305 313 317 312 317 307 300 303 287 306 28 63 262 276 247 243 243 220 198 176 185 178
165 165 155 262 277 285 273 249 257 256 268 274 281 258 257 273 275 294 287 268 267 281 277 288 291 293 294 296 286 292 298 287 297 159 138 121 358 271 224 209 185 183 174 172
183 168 126 267 344 250 254 255 269 275 273 294 314 304 329 283 281 279 277 252 269 283 273 273 276 283 285 286 291 291 290 294 292 286 337 7 355 327 258 202 208 180 168 165
192 125 251 180 236 287 293 287 348 299 292 280 250 311 317 303 300 280 262 260 253 264 272 264 260 262 275 289 286 285 288 274 268 255 277 316 348 305 275 201 191 170 159 175
129 170 152 140 195 236 251 249 299 277 259 184 190 309 308 298 287 278 274 261 259 258 261 269 264 254 261 276 277 279 278 243 246 244 265 312 302 289 275 234 180 176 174 173
13 351 169 221 230 266 248 260 306 234 274 321 317 305 292 276 266 277 285 274 257 269 275 273 265 257 263 272 275 265 269 240 220 199 252 272 278 279 263 207 157 147 135 138
171 164 226 115 74 292 203 335 232 267 304 295 293 285 283 278 279 281 277 272 279 276 270 263 257 264 266 273 279 277 250 234 108 244 282 287 298 299 264 180 141 150 147 149
265 186 215 171 224 253 278 276 286 274 276 285 280 284 280 278 276 274 272 272 273 269 265 264 256 264 270 269 248 262 240 158 189 226 248 256 271 302 240 182 161 156 153 151
262 194 235 328 264 267 279 284 277 281 279 288 290 287 283 280 279 276 269 274 270 269 264 262 252 252 258 249 237 223 170 173 209 221 239 235 189 175 113 112 150 155 146 145
192 165 252 268 283 286 267 274 277 300 301 291 291 291 289 291 292 288 283 283 282 280 270 250 256 257 260 251 246 171 162 196 240 216 198 204 159 145 108 76 123 142 152 162
177 221 188 249 262 264 295 313 293 290 293 300 299 299 291 287 286 287 283 280 274 279 278 265 270 273 249 220 210 212 176 167 182 199 179 179 143 121 122 113 90 87 109 123